COSMOS 1017

导读

COSMOS 1017是1978年6月7日由苏联(CIS)发射的一颗卫星,隶属于苏联广泛的宇宙(Kosmos)卫星系列。该系列自1962年起发射大量卫星,涵盖军用航天器、行星探测失败探测器、载人飞船原型及科学卫星等多种类型。COSMOS 1017延续了苏联航天探索传统,为当时航天技术验证、空间科学研究或军事应用领域提供了空间平台,是冷战时期苏联空间活动的重要组成部分,推动了航天技术发展。

基本信息
目录编号:
10934
目录名称:
COSMOS 1017
国际标识:
1978-056E
轨道中心:
EARTH
卫星名称:
COSMOS 1017
卫星全名:
--
卫星状态:
在轨 (已飞行17540 天)
发射日期:
1978-06-07 UTC
国别 :
俄罗斯(独联体) (CIS)
星等 :
--
轨道信息
数据来源 国际轨道数据
星历时间: 2026-06-15T07:43:39+0800
7小时前
查看轨道信息
半长轴: 7852.637km
偏心率: 0.0021821
轨道倾角: 74.027°
近地点辐角 202.867°
升交点赤经 71.657°
平近点角 168.531°
近地点: 1457.364km
远地点: 1491.636km
周期: 115.421分钟
每日圈数: 12.476119
详细信息
使用方式:
暂无
2D轨道图
3D轨道图
轨道高度分析图
轨道倾角分析图
轨道综合分析图
查看轨道综合分析图